Location: Palomar Mountain Lodge
(33.3110°N, 116.8495°W)
Time: 03:33:05
(UTC-07:00)

OAO 3 Copernicus - Pass Details

Date: 14 June 2018
Orbit: 695 x 705 km, 35.0° (Epoch: 17 August)

Event Time Altitude Azimuth Distance (km) Brightness Sun altitude
Rises 22:17:47 0° 265° (W) 3,066 8.1 -23.0°
Reaches altitude 10° 22:20:12 10° 267° (W) 2,147 7.2 -23.4°
Maximum altitude 22:25:14 77° 353° (N) 713 4.3 -24.0°
Enters shadow 22:26:44 45° 69° (ENE) 935 4.8 -24.2°
